Regional Weather Roundup
Issued by NWS Burlington, VT

Home | Current Version | Previous Version | Text Only | Print | Product List | Glossary On
Versions: 1 2 3 4 5 6 7 8 9 10 11 12 13 14 15 16 17 18 19 20 21 22 23 24 25 26 27 28 29 30 31 32 33 34 35 36 37 38 39 40 41 42 43 44 45 46 47 48 49 50
819
ASUS41 KBTV 251130
RWRBTV
VERMONT REGIONAL WEATHER ROUNDUP
NATIONAL WEATHER SERVICE BURLINGTON VT
700 AM EDT SUN JUN 25 2017

NOTE: "FAIR" INDICATES FEW OR NO CLOUDS BELOW 12,000 FEET WITH NO
SIGNIFICANT WEATHER AND/OR OBSTRUCTIONS TO VISIBILITY.

* THESE REPORTS ARE NOT UNDER NWS QUALITY CONTROL AND/OR DO NOT
  REPORT WEATHER SUCH AS PRECIPITATION AND FOG.

VTZ001>019-251200-
_____VERMONT_____


CITY           SKY/WX    TMP DP  RH WIND       PRES   REMARKS
BURLINGTON     MOSUNNY   61  55  81 NE3       29.90S
MONTPELIER     SUNNY     58  54  86 CALM      29.96R
MORRISVILLE    MOSUNNY   53  51  93 CALM      29.93R
ST. JOHNSBURY*   N/A     56  55  97 MISG      29.90R
LYNDONVILLE*   FAIR      58  53  81 CALM      29.94R
MIDDLEBURY*    FAIR      62  54  75 SE5       29.93R
RUTLAND*       SUNNY     59  52  77 E3        29.94R
SPRINGFIELD    SUNNY     58  51  78 CALM      29.93S
HIGHGATE*      FAIR      63  57  82 CALM      29.90R
NEWPORT*       FAIR      60  54  80 CALM      29.92S
BENNINGTON     SUNNY     60  56  86 CALM      29.96R
SUTTON*          N/A     59 N/A N/A MISG        N/A
ISLAND POND*     N/A     57 N/A N/A CALM        N/A
GALLUP MILLS*    N/A     54 N/A N/A MISG        N/A
UNION VILLAGE*   N/A     55 N/A N/A MISG        N/A
MT. MANSFIELD*   N/A     50 N/A N/A W17         N/A

_____LAKE CHAMPLAIN_____


CITY           SKY/WX    TMP DP  RH WIND       PRES   REMARKS
BURTON ISLAND*   N/A     64  57  77 SW8         N/A
COLCHESTER RF*   N/A     63  55  77 SE8         N/A
DIAMOND ISL*     N/A     63  55  77 E1          N/A

$$

NYZ007-026>031-035-052-083-087-251200-
_____NORTHERN NEW YORK_____


CITY           SKY/WX    TMP DP  RH WIND       PRES   REMARKS
PLATTSBURGH    SUNNY     64  54  69 SW5       29.90R
SARANAC LAKE   MOSUNNY   56  55  97 SW7       29.92S
MASSENA        SUNNY     58  57  97 SW7       29.91R
OGDENSBURG*    FAIR      62  59  92 S3        29.91S
POTSDAM*       SUNNY     61  61 100 SW6       29.93R
STARK FALLS*     N/A     57 N/A N/A SW5         N/A
WATERTOWN      CLOUDY    60  60 100 S3        29.92R
FT DRUM        MOSUNNY   61  57  87 SW6       29.91S
ALBANY         MOSUNNY   64  55  72 VRB3      29.95R
GLENS FALLS    SUNNY     59  54  83 CALM      29.93R

$$
NHZ002-005-011-251200-
_____NEW HAMPSHIRE_____


CITY           SKY/WX    TMP DP  RH WIND       PRES   REMARKS
LEBANON        SUNNY     59  54  83 CALM      29.91R
KEENE          SUNNY     58  55  90 CALM      29.95R
MT WASHINGTON  FOG       41  41 100 W36         N/A  VSB 0   WCI  29
PLYMOUTH       FAIR      61  52  73 NW3       29.91S
WHITEFIELD     SUNNY     58  52  80 CALM      29.92R

$$

_____REGIONAL QUEBEC LOCATIONS_____


CITY           SKY/WX    TMP DP  RH WIND       PRES   REMARKS
MONTREAL       PTSUNNY   61  57  88 SW6       29.88R
QUEBEC CITY    MOSUNNY   57  50  77 SW9       29.83R
SHERBROOKE     CLOUDY    59  57  94 SW5       29.88R

_____REGIONAL ONTARIO LOCATIONS_____


CITY           SKY/WX    TMP DP  RH WIND       PRES   REMARKS
OTTAWA         MOSUNNY   57  55  94 W3        29.90R

______KEY______
VSB  - VISIBILITY IN MILES
WCI  - WIND CHILL INDEX
HX   - HEAT INDEX
$$
NNNN




USA.gov is the U.S. government's official web portal to all federal, state and local government web resources and services.